Miscellaneous Local Product
Issued by NWS Hastings, NE

Home | Current Version | Previous Version | Text Only | Print | Product List | Glossary On
Versions: 1 2 3 4 5 6 7 8 9 10 11 12 13 14 15 16 17 18 19 20 21 22 23 24 25 26 27 28 29 30 31 32 33 34 35 36 37 38 39 40 41 42 43 44 45 46 47 48 49 50
246
AXUS43 KGID 241802
MISGRI

GID CWA HOURLY WEATHER ROUNDUP
NATIONAL WEATHER SERVICE HASTINGS NE
1200 PM CST TUE JAN 24 2017

NOTE: "FAIR" INDICATES FEW OR NO CLOUDS BELOW 12,000 FEET WITH NO
SIGNIFICANT WEATHER AND/OR OBSTRUCTIONS TO VISIBILITY.

...SOUTH CENTRAL NEBRASKA...

CITY           SKY/WX    TMP DP  RH WIND       PRES   REMARKS
GRAND ISLAND   CLOUDY    31  30  96 E20G26    29.53F WCI  19
HASTINGS       CLOUDY    31  29  92 E12       29.52F FOG     WCI  22
KEARNEY        CLOUDY    30  28  93 E14       29.50F WCI  20
ORD            LGT SNOW  32  29  88 E17       29.55F FOG     WCI  21
YORK           MOSUNNY   32  32 100 E18       29.55F WCI  20
AURORA         CLOUDY    31  31  99 E16       29.54F WCI  20
LEXINGTON      SNOW      31  30  94 NE14      29.49F VSB 1/2 WCI  21
HOLDREGE       LGT SNOW  32  30  94 E20       29.46F WCI  20
HEBRON         CLOUDY    34  32  91 E13       29.51F WCI  25

...NEBRASKA PANHANDLE...

CITY           SKY/WX    TMP DP  RH WIND       PRES   REMARKS
CHADRON        SNOW      21  18  88 N16       29.77R VSB 1/2 WCI   7
ALLIANCE       FOG       20  17  88 N24G35    29.66S VSB 1/4 WCI   3
SCOTTSBLUFF    HAZE      21  16  81 N18       29.70S VSB 3/4 WCI   6
SIDNEY         LGT SNOW  23  19  85 N29       29.61F FOG     WCI   6

...WESTERN AND NORTH CENTRAL NEBRASKA...

CITY           SKY/WX    TMP DP  RH WIND       PRES   REMARKS
VALENTINE      SNOW      28  25  88 N10       29.65F VSB 1/4 WCI  19
AINSWORTH      SNOW      28  28 100 NE13      29.63F VSB 1/2 WCI  18
ONEILL         SNOW      30  29  97 NE16      29.62F VSB 1/4 WCI  19
BROKEN BOW     LGT SNOW  31  30  96 E10       29.53F VSB 1   WCI  22
IMPERIAL       CLOUDY    30  28  92 N17       29.54F WCI  18
NORTH PLATTE   CLOUDY    32  29  88 N7        29.55R WCI  26
MCCOOK         CLOUDY    32  31  96 N8        29.53S FOG     WCI  25

...EASTERN NEBRASKA...

CITY           SKY/WX    TMP DP  RH WIND       PRES   REMARKS
NORFOLK        CLOUDY    31  28  89 E17       29.60F FOG     WCI  19
SO SIOUX CITY  LGT RAIN  33  31  92 E16       29.69F FOG     WCI  23
TEKAMAH        CLOUDY    33  28  81 E16       29.67F WCI  23
COLUMBUS       CLOUDY    30  27  86 E20G28    29.59F WCI  18
ALBION         CLOUDY    32  30  92 E17G23    29.59F FOG     WCI  21
OMAHA EPPLEY   FLURRIES  33  27  78 E14       29.65F WCI  23
OFFUTT AFB     PTSUNNY   32  32 100 E15G23    29.64F WCI  22
MILLARD        CLOUDY    36  31  82 E14G20    29.62F WCI  27
LINCOLN        CLOUDY    33  29  85 E21G26    29.57F WCI  21
NEBRASKA CITY  CLOUDY    33  29  85 E15G24    29.59F WCI  23
BEATRICE       CLOUDY    35  32  90 E17G24    29.53F WCI  24
FALLS CITY     CLOUDY    35  31  85 E23       29.57F WCI  23

...NORTHERN KANSAS...

CITY           SKY/WX    TMP DP  RH WIND       PRES   REMARKS
GOODLAND       CLOUDY    31  30  96 N22G31    29.50S WCI  18
HILL CITY      CLOUDY    35  33  92 NW9       29.49R FOG     WCI  28
NORTON         CLOUDY    34  28  80 NW9       29.50S FOG     WCI  26
PHILLIPSBURG   CLOUDY    37  32  81 N7        29.47R WCI  32
SMITH CENTER   CLOUDY    37  32  81 E15       29.45F WCI  28
HAYS           CLOUDY    36  32  85 NW15      29.45S WCI  27
RUSSELL        SUNNY     45  34  65 NW8       29.41S
CONCORDIA      MOSUNNY   42  35  76 E16       29.44F
SALINA         MOSUNNY   54  37  52 S14       29.43F
TOPEKA         CLOUDY    43  34  70 E18G28    29.52F



USA.gov is the U.S. government's official web portal to all federal, state and local government web resources and services.